Location: Finkenbach
(49.5340°N, 8.9188°E)
Time: 20:26:28
(UTC+00:00)

Cosmos 676 Rocket - Pass Details

Date: 17 June 2025
Orbit: 751 x 778 km, 74.0° (Epoch: 16 July)

Event Time Altitude Azimuth Distance (km) Brightness Sun altitude
Exits shadow 22:32:08 27° 164° (SSE) 1,461 4.8 -16.1°
Maximum altitude 22:34:40 47° 106° (ESE) 1,011 4.4 -16.2°
Drops below altitude 10° 22:39:40 10° 33° (NNE) 2,310 7.1 -16.4°
Sets 22:42:06 0° 28° (NNE) 3,236 8.1 -16.4°
